User: anonymous
Location: Girdwood
(60.9430°N, 149.1660°W)
Time: 07:42:18
(UTC-08:00)
Language:

Iridium 86 - Orbit

View from above orbital plane
View from above orbital plane
View from above satellite
View from above satellite

Ground track
Ground track

The orbit data is extracted from the following two-line orbital elements,

1 25528U 98066B   14233.14384067 -.00000012  00000-0 -11481-4 0  1016
2 25528 086.3921 060.8603 0002308 115.5596 244.5838 14.34219078831589
Epoch (UTC): 21 August 2014 03:27:07
Eccentricity: 0.0002308
inclination: 86.3921°
perigee height: 776 km
apogee height: 779 km
right ascension of ascending node: 60.8603°
argument of perigee: 115.5596°
revolutions per day: 14.34219078
mean anomaly at epoch: 244.5838°
orbit number at epoch: 83158

The dashed part of the orbit path shows where the satellite is in the earth's shadow,  

DLR